| time (UTC) | temp F | wind direction | speed MPH | gust MPH | rain 1hr in | rain 24hr in | rain mn in | humidity % | barometer mb |
| 20260509005503 | 50 | 234 | 0.0 | 1.0 | 0.00 | 0.18 | 0.13 | 51 | 1010.5 |
| 20260509005214 | 50 | 0 | 0.0 | 0.0 | 0.00 | 0.18 | 0.13 | 52 | 1010.4 |
| 20260509004503 | 51 | 234 | 0.0 | 3.0 | 0.00 | 0.18 | 0.13 | 50 | 1010.4 |
| 20260509004003 | 51 | 234 | 0.0 | 3.0 | 0.00 | 0.18 | 0.13 | 47 | 1010.4 |
| 20260509003503 | 52 | 234 | 1.0 | 4.0 | 0.00 | 0.18 | 0.13 | 45 | 1010.3 |
| 20260509003003 | 52 | 234 | 2.0 | 4.0 | 0.00 | 0.18 | 0.13 | 42 | 1010.4 |
| 20260509002503 | 52 | 234 | 2.0 | 4.0 | 0.00 | 0.18 | 0.13 | 41 | 1010.3 |
| 20260509002004 | 52 | 234 | 2.0 | 5.0 | 0.00 | 0.18 | 0.13 | 41 | 1010.3 |
| 20260509001503 | 53 | 234 | 2.0 | 5.0 | 0.00 | 0.18 | 0.13 | 40 | 1010.3 |
| 20260509001214 | 53 | 234 | 2.0 | 5.0 | 0.00 | 0.18 | 0.13 | 39 | 1010.2 |
| 20260509000503 | 53 | 235 | 2.0 | 6.0 | 0.00 | 0.18 | 0.13 | 36 | 1010.1 |
| 20260509000004 | 53 | 236 | 2.0 | 6.0 | 0.00 | 0.18 | 0.13 | 36 | 1010.1 |
| 20260508235503 | 54 | 236 | 2.0 | 5.0 | 0.00 | 0.18 | 0.13 | 38 | 1010.0 |
| 20260508235004 | 54 | 238 | 2.0 | 5.0 | 0.00 | 0.18 | 0.13 | 35 | 1010.0 |
| 20260508234503 | 54 | 240 | 3.0 | 9.0 | 0.00 | 0.18 | 0.13 | 34 | 1010.0 |
| 20260508234004 | 54 | 238 | 4.0 | 12.0 | 0.00 | 0.18 | 0.13 | 33 | 1010.1 |
| 20260508233715 | 54 | 236 | 5.0 | 12.0 | 0.00 | 0.18 | 0.13 | 32 | 1010.0 |
| 20260508233216 | 54 | 241 | 6.0 | 12.0 | 0.00 | 0.18 | 0.13 | 32 | 1010.0 |
| 20260508232503 | 54 | 238 | 5.0 | 13.0 | 0.00 | 0.18 | 0.13 | 33 | 1010.0 |
| 20260508232216 | 55 | 230 | 6.0 | 14.0 | 0.00 | 0.18 | 0.13 | 32 | 1010.0 |
| 20260508231503 | 55 | 228 | 6.0 | 14.0 | 0.00 | 0.18 | 0.13 | 32 | 1010.0 |
| 20260508231213 | 55 | 229 | 6.0 | 13.0 | 0.00 | 0.18 | 0.13 | 32 | 1010.0 |
| 20260508230505 | 55 | 217 | 6.0 | 12.0 | 0.00 | 0.18 | 0.13 | 34 | 1010.0 |
| 20260508230005 | 55 | 206 | 5.0 | 12.0 | 0.00 | 0.18 | 0.13 | 35 | 1010.0 |
| 20260508225503 | 56 | 221 | 6.0 | 14.0 | 0.00 | 0.18 | 0.13 | 36 | 1010.0 |
| 20260508225003 | 56 | 244 | 7.0 | 14.0 | 0.00 | 0.18 | 0.13 | 36 | 1010.0 |
| 20260508224503 | 56 | 252 | 7.0 | 14.0 | 0.00 | 0.18 | 0.13 | 38 | 1010.1 |
| 20260508224213 | 56 | 241 | 7.0 | 14.0 | 0.00 | 0.18 | 0.13 | 39 | 1010.1 |
| 20260508223503 | 56 | 236 | 5.0 | 14.0 | 0.00 | 0.18 | 0.13 | 38 | 1010.1 |
| 20260508223003 | 56 | 234 | 5.0 | 13.0 | 0.00 | 0.18 | 0.13 | 38 | 1010.2 |
| 20260508222505 | 56 | 235 | 4.0 | 13.0 | 0.00 | 0.18 | 0.13 | 36 | 1010.2 |
| 20260508222003 | 56 | 260 | 5.0 | 13.0 | 0.00 | 0.18 | 0.13 | 36 | 1010.1 |
| 20260508221714 | 56 | 266 | 5.0 | 13.0 | 0.00 | 0.18 | 0.13 | 39 | 1010.1 |
| 20260508221213 | 56 | 244 | 6.0 | 13.0 | 0.00 | 0.18 | 0.13 | 38 | 1010.1 |
| 20260508220503 | 56 | 223 | 5.0 | 14.0 | 0.00 | 0.18 | 0.13 | 39 | 1010.2 |
| 20260508220003 | 56 | 232 | 5.0 | 14.0 | 0.00 | 0.18 | 0.13 | 39 | 1010.2 |
| 20260508215503 | 56 | 229 | 5.0 | 14.0 | 0.00 | 0.18 | 0.13 | 40 | 1010.2 |
| 20260508215003 | 56 | 231 | 6.0 | 14.0 | 0.00 | 0.18 | 0.13 | 38 | 1010.2 |
| 20260508214503 | 56 | 225 | 6.0 | 14.0 | 0.00 | 0.18 | 0.13 | 36 | 1010.2 |
| 20260508214003 | 56 | 224 | 5.0 | 10.0 | 0.00 | 0.18 | 0.13 | 36 | 1010.2 |
| 20260508213504 | 56 | 231 | 6.0 | 14.0 | 0.00 | 0.18 | 0.13 | 39 | 1010.2 |
| 20260508213215 | 56 | 232 | 5.0 | 14.0 | 0.00 | 0.18 | 0.13 | 39 | 1010.2 |
| 20260508212714 | 56 | 244 | 7.0 | 14.0 | 0.00 | 0.18 | 0.13 | 36 | 1010.2 |
| 20260508212003 | 57 | 259 | 8.0 | 15.0 | 0.00 | 0.18 | 0.13 | 38 | 1010.3 |
| 20260508211503 | 57 | 273 | 6.0 | 15.0 | 0.00 | 0.18 | 0.13 | 38 | 1010.2 |
| 20260508211003 | 57 | 258 | 6.0 | 17.0 | 0.00 | 0.18 | 0.13 | 38 | 1010.2 |
| 20260508210504 | 57 | 251 | 5.0 | 17.0 | 0.00 | 0.18 | 0.13 | 42 | 1010.1 |
| 20260508210003 | 56 | 231 | 4.0 | 17.0 | 0.00 | 0.18 | 0.13 | 41 | 1010.2 |
| 20260508205503 | 56 | 196 | 4.0 | 9.0 | 0.00 | 0.18 | 0.13 | 40 | 1010.2 |
| 20260508205213 | 56 | 200 | 4.0 | 12.0 | 0.00 | 0.18 | 0.13 | 41 | 1010.2 |
| 20260508204503 | 56 | 221 | 5.0 | 13.0 | 0.00 | 0.18 | 0.13 | 39 | 1010.2 |
| 20260508204003 | 56 | 212 | 6.0 | 13.0 | 0.00 | 0.18 | 0.13 | 39 | 1010.3 |
| 20260508203503 | 56 | 211 | 6.0 | 14.0 | 0.00 | 0.18 | 0.13 | 41 | 1010.3 |
| 20260508203005 | 56 | 208 | 6.0 | 14.0 | 0.00 | 0.18 | 0.13 | 42 | 1010.4 |
| 20260508202503 | 56 | 195 | 7.0 | 20.0 | 0.00 | 0.18 | 0.13 | 41 | 1010.4 |
| 20260508202003 | 56 | 190 | 6.0 | 20.0 | 0.00 | 0.18 | 0.13 | 43 | 1010.5 |
| 20260508201503 | 57 | 204 | 5.0 | 17.0 | 0.00 | 0.18 | 0.13 | 43 | 1010.5 |
| 20260508201003 | 56 | 224 | 6.0 | 17.0 | 0.00 | 0.18 | 0.13 | 46 | 1010.5 |
| 20260508200713 | 56 | 222 | 6.0 | 17.0 | 0.00 | 0.18 | 0.13 | 43 | 1010.6 |
| 20260508200212 | 56 | 208 | 6.0 | 18.0 | 0.00 | 0.18 | 0.13 | 44 | 1010.6 |
| 20260508195503 | 56 | 238 | 6.0 | 18.0 | 0.00 | 0.18 | 0.13 | 45 | 1010.8 |
| 20260508195004 | 56 | 239 | 5.0 | 13.0 | 0.00 | 0.18 | 0.13 | 47 | 1010.7 |
| 20260508194713 | 56 | 239 | 4.0 | 12.0 | 0.00 | 0.18 | 0.13 | 47 | 1010.7 |
| 20260508194005 | 56 | 264 | 4.0 | 12.0 | 0.00 | 0.18 | 0.13 | 48 | 1010.9 |
| 20260508193503 | 56 | 254 | 5.0 | 12.0 | 0.00 | 0.18 | 0.13 | 46 | 1011.0 |
| 20260508193005 | 56 | 244 | 4.0 | 12.0 | 0.00 | 0.18 | 0.13 | 50 | 1011.1 |
| 20260508192504 | 56 | 243 | 4.0 | 12.0 | 0.00 | 0.18 | 0.13 | 47 | 1011.2 |
| 20260508192212 | 56 | 244 | 6.0 | 15.0 | 0.00 | 0.18 | 0.13 | 51 | 1011.2 |
| 20260508191505 | 56 | 249 | 5.0 | 15.0 | 0.00 | 0.18 | 0.13 | 52 | 1011.3 |
| 20260508191214 | 56 | 238 | 6.0 | 13.0 | 0.00 | 0.18 | 0.13 | 53 | 1011.3 |
| 20260508190713 | 56 | 216 | 6.0 | 15.0 | 0.00 | 0.18 | 0.13 | 53 | 1011.4 |
| 20260508190003 | 56 | 199 | 5.0 | 18.0 | 0.00 | 0.18 | 0.13 | 54 | 1011.5 |
| 20260508185504 | 55 | 216 | 6.0 | 18.0 | 0.00 | 0.18 | 0.13 | 52 | 1011.5 |
| 20260508185003 | 56 | 222 | 4.0 | 14.0 | 0.00 | 0.18 | 0.13 | 55 | 1011.5 |
| 20260508184506 | 56 | 180 | 4.0 | 14.0 | 0.00 | 0.18 | 0.13 | 56 | 1011.5 |
| 20260508184005 | 56 | 200 | 5.0 | 13.0 | 0.00 | 0.18 | 0.13 | 56 | 1011.5 |
| 20260508183503 | 55 | 239 | 5.0 | 13.0 | 0.00 | 0.18 | 0.13 | 56 | 1011.6 |
| 20260508183005 | 55 | 236 | 5.0 | 13.0 | 0.00 | 0.18 | 0.13 | 57 | 1011.7 |
| 20260508182503 | 54 | 215 | 6.0 | 12.0 | 0.00 | 0.18 | 0.13 | 55 | 1011.7 |
| 20260508182003 | 55 | 221 | 5.0 | 12.0 | 0.00 | 0.18 | 0.13 | 55 | 1011.7 |
| 20260508181503 | 55 | 230 | 5.0 | 15.0 | 0.00 | 0.18 | 0.13 | 56 | 1011.5 |
| 20260508181216 | 55 | 233 | 4.0 | 15.0 | 0.00 | 0.18 | 0.13 | 56 | 1011.5 |
| 20260508180505 | 55 | 234 | 4.0 | 12.0 | 0.00 | 0.18 | 0.13 | 56 | 1011.6 |
| 20260508180214 | 55 | 233 | 4.0 | 12.0 | 0.00 | 0.18 | 0.13 | 56 | 1011.7 |
| 20260508175503 | 55 | 243 | 4.0 | 13.0 | 0.00 | 0.18 | 0.13 | 58 | 1011.6 |
| 20260508175005 | 55 | 259 | 6.0 | 19.0 | 0.00 | 0.18 | 0.13 | 59 | 1011.6 |
| 20260508174712 | 54 | 256 | 6.0 | 19.0 | 0.00 | 0.18 | 0.13 | 59 | 1011.7 |
| 20260508174004 | 54 | 242 | 6.0 | 19.0 | 0.00 | 0.18 | 0.13 | 58 | 1011.8 |
| 20260508173505 | 54 | 251 | 5.0 | 14.0 | 0.00 | 0.18 | 0.13 | 58 | 1011.9 |
| 20260508173004 | 54 | 257 | 4.0 | 10.0 | 0.00 | 0.18 | 0.13 | 58 | 1011.9 |
| 20260508172504 | 53 | 233 | 4.0 | 10.0 | 0.00 | 0.18 | 0.13 | 57 | 1012.0 |
| 20260508172003 | 53 | 231 | 3.0 | 9.0 | 0.00 | 0.18 | 0.13 | 58 | 1012.0 |
| 20260508171503 | 53 | 239 | 2.0 | 9.0 | 0.00 | 0.18 | 0.13 | 60 | 1012.0 |
| 20260508171004 | 53 | 241 | 4.0 | 10.0 | 0.00 | 0.18 | 0.13 | 62 | 1012.0 |
| 20260508170503 | 53 | 245 | 5.0 | 13.0 | 0.00 | 0.18 | 0.13 | 60 | 1012.1 |
| 20260508170213 | 53 | 252 | 5.0 | 13.0 | 0.00 | 0.18 | 0.13 | 63 | 1012.0 |
| 20260508165503 | 53 | 255 | 4.0 | 13.0 | 0.00 | 0.18 | 0.13 | 65 | 1012.1 |
| 20260508165005 | 52 | 244 | 4.0 | 13.0 | 0.00 | 0.18 | 0.13 | 63 | 1012.1 |
| 20260508164712 | 52 | 246 | 5.0 | 13.0 | 0.00 | 0.18 | 0.13 | 60 | 1012.1 |
| 20260508164003 | 52 | 282 | 4.0 | 12.0 | 0.00 | 0.18 | 0.13 | 64 | 1012.2 |
| 20260508163503 | 52 | 316 | 4.0 | 17.0 | 0.00 | 0.18 | 0.13 | 63 | 1012.3 |
| 20260508163005 | 52 | 318 | 4.0 | 17.0 | 0.00 | 0.18 | 0.13 | 60 | 1012.4 |
| 20260508162503 | 52 | 301 | 4.0 | 10.0 | 0.00 | 0.18 | 0.13 | 65 | 1012.3 |
| 20260508162003 | 52 | 293 | 5.0 | 13.0 | 0.00 | 0.18 | 0.13 | 67 | 1012.3 |
| 20260508161503 | 51 | 317 | 6.0 | 13.0 | 0.00 | 0.18 | 0.13 | 67 | 1012.5 |
| 20260508161003 | 51 | 327 | 4.0 | 12.0 | 0.00 | 0.18 | 0.13 | 65 | 1012.5 |
| 20260508160504 | 51 | 311 | 4.0 | 13.0 | 0.00 | 0.18 | 0.13 | 67 | 1012.5 |
| 20260508160003 | 51 | 310 | 5.0 | 13.0 | 0.00 | 0.18 | 0.13 | 69 | 1012.5 |
| 20260508155714 | 51 | 316 | 5.0 | 13.0 | 0.00 | 0.18 | 0.13 | 68 | 1012.5 |
| 20260508155003 | 50 | 331 | 6.0 | 17.0 | 0.00 | 0.18 | 0.13 | 70 | 1012.6 |
| 20260508154503 | 50 | 333 | 7.0 | 17.0 | 0.00 | 0.18 | 0.13 | 70 | 1012.5 |
| 20260508154003 | 50 | 319 | 5.0 | 15.0 | 0.00 | 0.18 | 0.13 | 72 | 1012.6 |
| 20260508153505 | 49 | 287 | 4.0 | 12.0 | 0.00 | 0.18 | 0.13 | 74 | 1012.8 |
| 20260508153005 | 49 | 271 | 5.0 | 13.0 | 0.00 | 0.18 | 0.13 | 75 | 1012.7 |
| 20260508152503 | 49 | 254 | 6.0 | 13.0 | 0.00 | 0.18 | 0.13 | 77 | 1012.7 |
| 20260508152005 | 48 | 261 | 5.0 | 13.0 | 0.00 | 0.18 | 0.13 | 78 | 1012.9 |
| 20260508151505 | 48 | 286 | 4.0 | 10.0 | 0.00 | 0.18 | 0.13 | 81 | 1012.9 |
| 20260508151003 | 48 | 256 | 4.0 | 9.0 | 0.00 | 0.18 | 0.13 | 82 | 1012.9 |
| 20260508150713 | 47 | 241 | 3.0 | 9.0 | 0.00 | 0.18 | 0.13 | 82 | 1012.9 |
| 20260508150003 | 47 | 231 | 4.0 | 9.0 | 0.00 | 0.18 | 0.13 | 83 | 1012.9 |
| 20260508145503 | 47 | 234 | 4.0 | 9.0 | 0.00 | 0.18 | 0.13 | 83 | 1012.8 |
| 20260508145003 | 47 | 238 | 3.0 | 6.0 | 0.00 | 0.18 | 0.13 | 84 | 1012.8 |
| 20260508144715 | 46 | 241 | 4.0 | 6.0 | 0.00 | 0.18 | 0.13 | 84 | 1012.9 |
| 20260508144003 | 46 | 274 | 4.0 | 10.0 | 0.00 | 0.18 | 0.13 | 87 | 1012.8 |
| 20260508143504 | 46 | 261 | 4.0 | 9.0 | 0.00 | 0.18 | 0.13 | 87 | 1012.9 |
| 20260508143006 | 46 | 224 | 4.0 | 9.0 | 0.00 | 0.18 | 0.13 | 88 | 1012.8 |
| 20260508142503 | 45 | 221 | 3.0 | 9.0 | 0.00 | 0.18 | 0.13 | 89 | 1012.8 |
| 20260508142003 | 45 | 226 | 3.0 | 9.0 | 0.00 | 0.18 | 0.13 | 91 | 1012.8 |
| 20260508141505 | 44 | 234 | 3.0 | 9.0 | 0.00 | 0.18 | 0.13 | 91 | 1012.7 |
| 20260508141004 | 44 | 221 | 3.0 | 8.0 | 0.00 | 0.18 | 0.13 | 92 | 1012.6 |
| 20260508140503 | 44 | 186 | 2.0 | 8.0 | 0.00 | 0.18 | 0.13 | 92 | 1012.8 |
| 20260508140003 | 44 | 140 | 2.0 | 5.0 | 0.00 | 0.18 | 0.13 | 93 | 1012.8 |
| 20260508135503 | 43 | 106 | 2.0 | 5.0 | 0.00 | 0.18 | 0.13 | 93 | 1012.9 |
| 20260508135214 | 43 | 102 | 1.0 | 5.0 | 0.00 | 0.18 | 0.13 | 94 | 1012.8 |
| 20260508134508 | 42 | 98 | 1.0 | 4.0 | 0.00 | 0.18 | 0.13 | 94 | 1012.9 |
| 20260508134214 | 42 | 98 | 1.0 | 4.0 | 0.01 | 0.18 | 0.13 | 94 | 1012.9 |
| 20260508133503 | 42 | 98 | 2.0 | 4.0 | 0.01 | 0.18 | 0.13 | 94 | 1012.9 |
| 20260508133003 | 42 | 94 | 2.0 | 8.0 | 0.01 | 0.18 | 0.13 | 95 | 1012.8 |
| 20260508132503 | 42 | 91 | 3.0 | 8.0 | 0.01 | 0.18 | 0.13 | 95 | 1012.7 |
| 20260508132003 | 42 | 89 | 2.0 | 5.0 | 0.01 | 0.18 | 0.13 | 95 | 1012.7 |
| 20260508131505 | 41 | 88 | 2.0 | 5.0 | 0.01 | 0.18 | 0.13 | 95 | 1012.8 |
| 20260508131005 | 41 | 87 | 2.0 | 5.0 | 0.01 | 0.18 | 0.13 | 95 | 1012.7 |
| 20260508130503 | 41 | 85 | 2.0 | 8.0 | 0.01 | 0.18 | 0.13 | 95 | 1012.7 |
| 20260508130004 | 41 | 82 | 3.0 | 8.0 | 0.01 | 0.18 | 0.13 | 95 | 1012.7 |
| 20260508125503 | 40 | 37 | 3.0 | 8.0 | 0.01 | 0.18 | 0.13 | 94 | 1012.6 |
| 20260508125005 | 40 | 337 | 2.0 | 5.0 | 0.01 | 0.18 | 0.13 | 94 | 1012.6 |
| 20260508124503 | 40 | 323 | 1.0 | 4.0 | 0.01 | 0.18 | 0.13 | 94 | 1012.6 |
| 20260508124003 | 40 | 323 | 1.0 | 4.0 | 0.01 | 0.17 | 0.11 | 94 | 1012.7 |
| 20260508123715 | 40 | 323 | 1.0 | 4.0 | 0.01 | 0.17 | 0.11 | 94 | 1012.6 |
| 20260508123003 | 40 | 323 | 0.0 | 3.0 | 0.02 | 0.17 | 0.11 | 94 | 1012.5 |
| 20260508122503 | 40 | 0 | 0.0 | 0.0 | 0.02 | 0.17 | 0.11 | 94 | 1012.7 |
| 20260508122003 | 40 | 0 | 0.0 | 0.0 | 0.03 | 0.17 | 0.11 | 94 | 1012.7 |
| 20260508121505 | 40 | 323 | 0.0 | 1.0 | 0.05 | 0.17 | 0.11 | 94 | 1012.7 |
| 20260508121003 | 40 | 323 | 0.0 | 3.0 | 0.06 | 0.17 | 0.11 | 94 | 1012.6 |
| 20260508120503 | 40 | 323 | 1.0 | 3.0 | 0.07 | 0.17 | 0.11 | 94 | 1012.6 |
| 20260508120004 | 40 | 323 | 1.0 | 4.0 | 0.08 | 0.17 | 0.11 | 93 | 1012.6 |
| 20260508115503 | 40 | 322 | 2.0 | 6.0 | 0.08 | 0.17 | 0.11 | 93 | 1012.5 |
| 20260508115003 | 40 | 321 | 3.0 | 10.0 | 0.08 | 0.17 | 0.11 | 93 | 1012.6 |
| 20260508114503 | 40 | 322 | 4.0 | 13.0 | 0.08 | 0.17 | 0.11 | 93 | 1012.7 |
| 20260508114003 | 40 | 326 | 5.0 | 13.0 | 0.07 | 0.16 | 0.10 | 93 | 1012.6 |
| 20260508113503 | 40 | 317 | 4.0 | 12.0 | 0.07 | 0.16 | 0.10 | 93 | 1012.7 |
| 20260508113004 | 40 | 309 | 6.0 | 15.0 | 0.06 | 0.15 | 0.09 | 93 | 1012.8 |
| 20260508112503 | 41 | 316 | 6.0 | 15.0 | 0.06 | 0.15 | 0.09 | 93 | 1012.6 |
| 20260508112003 | 41 | 315 | 4.0 | 15.0 | 0.05 | 0.14 | 0.08 | 93 | 1012.5 |
| 20260508111503 | 42 | 289 | 3.0 | 9.0 | 0.03 | 0.13 | 0.07 | 93 | 1012.5 |
| 20260508111003 | 42 | 269 | 2.0 | 9.0 | 0.02 | 0.12 | 0.06 | 92 | 1012.3 |
| 20260508110714 | 42 | 266 | 1.0 | 4.0 | 0.01 | 0.10 | 0.05 | 92 | 1012.2 |
| 20260508110213 | 42 | 265 | 1.0 | 4.0 | 0.01 | 0.09 | 0.03 | 92 | 1012.2 |
| 20260508105714 | 41 | 265 | 1.0 | 4.0 | 0.02 | 0.09 | 0.03 | 92 | 1011.9 |
| 20260508105003 | 41 | 265 | 1.0 | 3.0 | 0.02 | 0.09 | 0.03 | 92 | 1011.8 |
| 20260508104714 | 41 | 265 | 0.0 | 3.0 | 0.02 | 0.09 | 0.03 | 92 | 1011.6 |
| 20260508104003 | 41 | 265 | 1.0 | 5.0 | 0.02 | 0.09 | 0.03 | 91 | 1011.6 |
| 20260508103716 | 42 | 265 | 1.0 | 5.0 | 0.02 | 0.09 | 0.03 | 91 | 1011.6 |
| 20260508103213 | 42 | 263 | 2.0 | 8.0 | 0.02 | 0.09 | 0.03 | 91 | 1011.6 |
| 20260508102505 | 42 | 262 | 3.0 | 8.0 | 0.02 | 0.09 | 0.03 | 91 | 1011.8 |
| 20260508102003 | 42 | 263 | 4.0 | 12.0 | 0.02 | 0.09 | 0.03 | 92 | 1011.5 |
| 20260508101504 | 42 | 252 | 5.0 | 12.0 | 0.02 | 0.09 | 0.03 | 92 | 1011.5 |
| 20260508101003 | 42 | 238 | 4.0 | 12.0 | 0.02 | 0.09 | 0.03 | 92 | 1011.5 |
| 20260508100503 | 42 | 234 | 2.0 | 12.0 | 0.01 | 0.08 | 0.02 | 93 | 1011.4 |
| 20260508100003 | 42 | 238 | 0.0 | 3.0 | 0.01 | 0.08 | 0.02 | 93 | 1011.4 |
| 20260508095714 | 42 | 0 | 0.0 | 0.0 | 0.00 | 0.07 | 0.01 | 93 | 1011.4 |
| 20260508095003 | 43 | 0 | 0.0 | 0.0 | 0.00 | 0.07 | 0.01 | 93 | 1011.4 |
| 20260508094714 | 43 | 0 | 0.0 | 0.0 | 0.00 | 0.07 | 0.01 | 93 | 1011.4 |
| 20260508094003 | 42 | 238 | 0.0 | 1.0 | 0.00 | 0.07 | 0.01 | 93 | 1011.2 |
| 20260508093503 | 42 | 238 | 1.0 | 3.0 | 0.00 | 0.07 | 0.01 | 93 | 1011.2 |
| 20260508093003 | 43 | 238 | 0.0 | 3.0 | 0.00 | 0.07 | 0.01 | 93 | 1011.1 |
| 20260508092503 | 43 | 238 | 1.0 | 3.0 | 0.00 | 0.07 | 0.01 | 93 | 1011.4 |
| 20260508092005 | 43 | 238 | 2.0 | 4.0 | 0.00 | 0.07 | 0.01 | 94 | 1011.5 |
| 20260508091503 | 43 | 238 | 1.0 | 4.0 | 0.00 | 0.07 | 0.01 | 94 | 1011.4 |
| 20260508091005 | 43 | 238 | 0.0 | 4.0 | 0.00 | 0.07 | 0.01 | 94 | 1011.3 |
| 20260508090503 | 43 | 237 | 1.0 | 6.0 | 0.00 | 0.07 | 0.01 | 94 | 1011.2 |
| 20260508090003 | 43 | 236 | 2.0 | 6.0 | 0.00 | 0.07 | 0.01 | 94 | 1011.2 |
| 20260508085503 | 43 | 230 | 2.0 | 6.0 | 0.00 | 0.07 | 0.01 | 94 | 1011.4 |
| 20260508085004 | 43 | 228 | 2.0 | 6.0 | 0.00 | 0.07 | 0.01 | 95 | 1011.6 |
| 20260508084504 | 43 | 223 | 2.0 | 6.0 | 0.00 | 0.07 | 0.01 | 95 | 1011.5 |
| 20260508084214 | 43 | 222 | 2.0 | 6.0 | 0.00 | 0.07 | 0.01 | 95 | 1011.4 |
| 20260508083505 | 43 | 228 | 4.0 | 13.0 | 0.00 | 0.07 | 0.01 | 95 | 1011.6 |
| 20260508083003 | 43 | 229 | 5.0 | 14.0 | 0.00 | 0.07 | 0.01 | 95 | 1011.7 |
| 20260508082503 | 43 | 222 | 5.0 | 13.0 | 0.00 | 0.07 | 0.01 | 96 | 1011.7 |
| 20260508082003 | 43 | 222 | 5.0 | 10.0 | 0.00 | 0.07 | 0.01 | 96 | 1011.8 |
| 20260508081503 | 43 | 229 | 5.0 | 12.0 | 0.00 | 0.07 | 0.01 | 96 | 1011.8 |
| 20260508081003 | 43 | 229 | 5.0 | 12.0 | 0.00 | 0.07 | 0.01 | 96 | 1011.7 |
| 20260508080504 | 43 | 225 | 4.0 | 12.0 | 0.00 | 0.07 | 0.01 | 96 | 1011.6 |
| 20260508080214 | 43 | 220 | 4.0 | 9.0 | 0.00 | 0.07 | 0.01 | 96 | 1011.6 |
| 20260508075503 | 42 | 205 | 3.0 | 8.0 | 0.00 | 0.07 | 0.01 | 96 | 1011.6 |
| 20260508075214 | 42 | 206 | 3.0 | 8.0 | 0.00 | 0.07 | 0.01 | 96 | 1011.6 |
| 20260508074504 | 42 | 207 | 3.0 | 8.0 | 0.00 | 0.07 | 0.01 | 96 | 1011.6 |
| 20260508074005 | 42 | 205 | 2.0 | 8.0 | 0.00 | 0.07 | 0.01 | 96 | 1011.6 |
| 20260508073503 | 42 | 203 | 2.0 | 6.0 | 0.00 | 0.07 | 0.01 | 96 | 1011.7 |
| 20260508073214 | 42 | 202 | 3.0 | 5.0 | 0.00 | 0.07 | 0.01 | 96 | 1011.6 |
| 20260508072503 | 42 | 194 | 2.0 | 8.0 | 0.00 | 0.07 | 0.01 | 96 | 1011.7 |
| 20260508072004 | 42 | 189 | 2.0 | 5.0 | 0.00 | 0.07 | 0.01 | 96 | 1011.7 |
| 20260508071503 | 42 | 188 | 1.0 | 5.0 | 0.00 | 0.07 | 0.01 | 96 | 1011.5 |
| 20260508071004 | 42 | 188 | 2.0 | 5.0 | 0.00 | 0.07 | 0.01 | 96 | 1011.6 |
| 20260508070713 | 42 | 188 | 2.0 | 5.0 | 0.00 | 0.07 | 0.01 | 96 | 1011.6 |
| 20260508070004 | 42 | 187 | 2.0 | 5.0 | 0.00 | 0.07 | 0.01 | 96 | 1011.7 |
| 20260508065505 | 42 | 186 | 3.0 | 5.0 | 0.00 | 0.07 | 0.01 | 96 | 1011.7 |
| 20260508065006 | 42 | 163 | 3.0 | 6.0 | 0.00 | 0.07 | 0.01 | 96 | 1011.8 |
| 20260508064503 | 41 | 122 | 3.0 | 6.0 | 0.00 | 0.07 | 0.01 | 96 | 1011.8 |
| 20260508064215 | 41 | 109 | 3.0 | 5.0 | 0.00 | 0.07 | 0.01 | 96 | 1011.8 |
| 20260508063505 | 41 | 99 | 2.0 | 5.0 | 0.00 | 0.07 | 0.01 | 95 | 1011.8 |
| 20260508063213 | 41 | 96 | 2.0 | 5.0 | 0.00 | 0.07 | 0.01 | 95 | 1011.8 |
| 20260508062503 | 41 | 85 | 2.0 | 5.0 | 0.00 | 0.07 | 0.01 | 95 | 1011.8 |
| 20260508062003 | 40 | 79 | 2.0 | 4.0 | 0.00 | 0.07 | 0.01 | 95 | 1011.8 |
| 20260508061503 | 40 | 76 | 1.0 | 4.0 | 0.01 | 0.07 | 0.01 | 95 | 1011.8 |
| 20260508061003 | 40 | 75 | 1.0 | 4.0 | 0.01 | 0.07 | 0.01 | 95 | 1011.9 |
| 20260508060505 | 40 | 73 | 1.0 | 4.0 | 0.01 | 0.07 | 0.01 | 95 | 1011.9 |
| 20260508060005 | 40 | 73 | 1.0 | 4.0 | 0.01 | 0.07 | 0.01 | 95 | 1011.9 |
| 20260508055504 | 40 | 72 | 1.0 | 4.0 | 0.01 | 0.07 | 0.01 | 95 | 1011.9 |
| 20260508055003 | 40 | 72 | 1.0 | 3.0 | 0.01 | 0.07 | 0.01 | 95 | 1011.6 |
| 20260508054503 | 40 | 72 | 0.0 | 3.0 | 0.01 | 0.07 | 0.01 | 95 | 1011.9 |
| 20260508054003 | 39 | 72 | 1.0 | 3.0 | 0.01 | 0.07 | 0.01 | 95 | 1012.0 |
| 20260508053503 | 39 | 70 | 2.0 | 5.0 | 0.01 | 0.07 | 0.01 | 95 | 1012.1 |
| 20260508053213 | 39 | 60 | 2.0 | 5.0 | 0.01 | 0.07 | 0.01 | 95 | 1012.1 |
| 20260508052504 | 39 | 8 | 1.0 | 5.0 | 0.01 | 0.07 | 0.01 | 94 | 1011.8 |
| 20260508052213 | 38 | 347 | 0.0 | 5.0 | 0.01 | 0.07 | 0.01 | 94 | 1012.0 |
| 20260508051503 | 38 | 0 | 0.0 | 0.0 | 0.00 | 0.06 | 0.00 | 94 | 1012.1 |
| 20260508051006 | 38 | 0 | 0.0 | 0.0 | 0.00 | 0.06 | 0.00 | 94 | 1012.0 |
| 20260508050503 | 38 | 0 | 0.0 | 0.0 | 0.00 | 0.06 | 0.00 | 94 | 1012.0 |
| 20260508050003 | 39 | 0 | 0.0 | 0.0 | 0.00 | 0.06 | 0.00 | 93 | 1012.1 |
| 20260508045505 | 39 | 0 | 0.0 | 0.0 | 0.00 | 0.06 | 0.00 | 94 | 1012.3 |
| 20260508045003 | 39 | 0 | 0.0 | 0.0 | 0.00 | 0.06 | 0.00 | 93 | 1012.3 |
| 20260508044505 | 39 | 0 | 0.0 | 0.0 | 0.00 | 0.06 | 0.00 | 93 | 1012.3 |
| 20260508044212 | 39 | 0 | 0.0 | 0.0 | 0.00 | 0.06 | 0.00 | 93 | 1012.3 |
| 20260508043503 | 39 | 0 | 0.0 | 0.0 | 0.00 | 0.06 | 0.00 | 93 | 1012.2 |
| 20260508043006 | 39 | 0 | 0.0 | 0.0 | 0.00 | 0.06 | 0.00 | 93 | 1012.3 |
| 20260508042503 | 40 | 0 | 0.0 | 0.0 | 0.00 | 0.06 | 0.00 | 93 | 1012.2 |
| 20260508042003 | 40 | 0 | 0.0 | 0.0 | 0.00 | 0.06 | 0.00 | 93 | 1012.2 |
| 20260508041505 | 40 | 0 | 0.0 | 0.0 | 0.00 | 0.06 | 0.00 | 93 | 1012.3 |
| 20260508041003 | 40 | 0 | 0.0 | 0.0 | 0.00 | 0.06 | 0.00 | 93 | 1012.2 |
| 20260508040503 | 40 | 0 | 0.0 | 0.0 | 0.00 | 0.06 | 0.00 | 93 | 1012.2 |
| 20260508040004 | 40 | 0 | 0.0 | 0.0 | 0.00 | 0.06 | 0.00 | 93 | 1012.2 |
| 20260508035505 | 40 | 346 | 0.0 | 3.0 | 0.00 | 0.06 | 0.06 | 93 | 1012.2 |
| 20260508035003 | 40 | 346 | 1.0 | 4.0 | 0.00 | 0.06 | 0.06 | 93 | 1012.2 |
| 20260508034503 | 40 | 346 | 1.0 | 4.0 | 0.00 | 0.06 | 0.06 | 93 | 1012.3 |
| 20260508034003 | 41 | 346 | 0.0 | 1.0 | 0.00 | 0.06 | 0.06 | 93 | 1012.3 |
| 20260508033713 | 41 | 0 | 0.0 | 0.0 | 0.00 | 0.06 | 0.06 | 93 | 1012.3 |
| 20260508033003 | 41 | 0 | 0.0 | 0.0 | 0.00 | 0.06 | 0.06 | 93 | 1012.3 |
| 20260508032503 | 41 | 0 | 0.0 | 0.0 | 0.00 | 0.06 | 0.06 | 92 | 1012.3 |
| 20260508032003 | 41 | 0 | 0.0 | 0.0 | 0.00 | 0.06 | 0.06 | 92 | 1012.4 |
| 20260508031503 | 42 | 0 | 0.0 | 0.0 | 0.00 | 0.06 | 0.06 | 92 | 1012.2 |
| 20260508031005 | 42 | 0 | 0.0 | 0.0 | 0.00 | 0.06 | 0.06 | 92 | 1012.2 |
| 20260508030503 | 42 | 0 | 0.0 | 0.0 | 0.00 | 0.06 | 0.06 | 92 | 1012.1 |
| 20260508030003 | 42 | 0 | 0.0 | 0.0 | 0.00 | 0.06 | 0.06 | 92 | 1012.1 |
| 20260508025503 | 42 | 0 | 0.0 | 0.0 | 0.00 | 0.06 | 0.06 | 92 | 1012.1 |
| 20260508025003 | 42 | 0 | 0.0 | 0.0 | 0.01 | 0.06 | 0.06 | 92 | 1012.0 |
| 20260508024503 | 42 | 0 | 0.0 | 0.0 | 0.02 | 0.06 | 0.06 | 92 | 1012.0 |
| 20260508024003 | 43 | 0 | 0.0 | 0.0 | 0.02 | 0.06 | 0.06 | 92 | 1012.1 |
| 20260508023503 | 42 | 346 | 0.0 | 1.0 | 0.02 | 0.06 | 0.06 | 92 | 1012.0 |
| 20260508023003 | 42 | 346 | 0.0 | 1.0 | 0.02 | 0.06 | 0.06 | 92 | 1012.0 |
| 20260508022503 | 42 | 346 | 1.0 | 5.0 | 0.02 | 0.06 | 0.06 | 92 | 1012.0 |
| 20260508022003 | 43 | 346 | 3.0 | 10.0 | 0.03 | 0.06 | 0.06 | 92 | 1011.9 |
| 20260508021715 | 43 | 347 | 4.0 | 10.0 | 0.05 | 0.06 | 0.06 | 92 | 1011.9 |
| 20260508021005 | 43 | 340 | 4.0 | 10.0 | 0.05 | 0.06 | 0.06 | 91 | 1011.9 |
| 20260508020503 | 43 | 331 | 4.0 | 10.0 | 0.06 | 0.06 | 0.06 | 91 | 1012.0 |
| 20260508020003 | 43 | 323 | 4.0 | 10.0 | 0.06 | 0.06 | 0.06 | 91 | 1012.1 |
| 20260508015715 | 43 | 320 | 3.0 | 10.0 | 0.06 | 0.06 | 0.06 | 91 | 1012.1 |
| 20260508015003 | 43 | 322 | 3.0 | 8.0 | 0.05 | 0.05 | 0.05 | 90 | 1012.1 |
| 20260508014503 | 43 | 325 | 3.0 | 10.0 | 0.03 | 0.03 | 0.03 | 90 | 1012.2 |
| 20260508014005 | 43 | 328 | 3.0 | 10.0 | 0.03 | 0.03 | 0.03 | 89 | 1012.1 |
| 20260508013503 | 43 | 327 | 3.0 | 10.0 | 0.03 | 0.03 | 0.03 | 89 | 1012.1 |
| 20260508013005 | 43 | 311 | 4.0 | 13.0 | 0.03 | 0.03 | 0.03 | 88 | 1011.9 |
| 20260508012505 | 44 | 299 | 5.0 | 13.0 | 0.03 | 0.03 | 0.03 | 87 | 1012.0 |
| 20260508012213 | 44 | 301 | 5.0 | 17.0 | 0.02 | 0.02 | 0.02 | 87 | 1012.0 |
| 20260508011503 | 44 | 296 | 9.0 | 18.0 | 0.01 | 0.01 | 0.01 | 86 | 1012.0 |
| 20260508011213 | 44 | 293 | 8.0 | 20.0 | 0.01 | 0.01 | 0.01 | 84 | 1011.9 |
| 20260508010503 | 45 | 309 | 4.0 | 20.0 | 0.00 | 0.00 | 0.00 | 83 | 1011.8 |
| 20260508010003 | 45 | 324 | 2.0 | 5.0 | 0.00 | 0.00 | 0.00 | 82 | 1011.8 |